,,PressureMeas_1m,,PRMeasQMR101_1,,RHStat155_1m_1,,SRMeasQMS101R_1m,,TAStat155_1m_1,,GenWind_1,,GenWind_1,
2018-04-20, 00:00:06,VALID,917.113,VALID,0.0,VALID,98.993,VALID,-0.016,VALID,20.475,VALID,166.0,VALID,0.013,
2018-04-20, 00:01:06,VALID,917.07,VALID,0.0,VALID,98.996,VALID,-0.017,VALID,20.463,VALID,158.0,VALID,0.0,
2018-04-20, 00:02:06,VALID,917.038,VALID,0.0,VALID,98.999,VALID,0.0,VALID,20.459,VALID,162.0,VALID,0.0,
2018-04-20, 00:03:06,VALID,917.004,VALID,0.0,VALID,98.979,VALID,0.021,VALID,20.454,VALID,150.0,VALID,0.0,
2018-04-20, 00:04:06,VALID,916.975,VALID,0.0,VALID,98.979,VALID,0.009,VALID,20.445,VALID,150.0,VALID,0.0,
2018-04-20, 00:05:06,VALID,916.95,VALID,0.0,VALID,98.988,VALID,-0.003,VALID,20.443,VALID,150.0,VALID,0.0,
2018-04-20, 00:06:06,VALID,916.931,VALID,0.0,VALID,98.989,VALID,0.023,VALID,20.421,VALID,150.0,VALID,0.0,
2018-04-20, 00:07:06,VALID,916.897,VALID,0.0,VALID,98.993,VALID,0.021,VALID,20.422,VALID,150.0,VALID,0.0,
2018-04-20, 00:08:06,VALID,916.879,VALID,0.0,VALID,98.975,VALID,0.003,VALID,20.398,VALID,150.0,VALID,0.0,
2018-04-20, 00:09:06,VALID,916.841,VALID,0.0,VALID,98.984,VALID,-0.004,VALID,20.378,VALID,150.0,VALID,0.0,
2018-04-20, 00:10:06,VALID,916.824,VALID,0.0,VALID,98.986,VALID,0.004,VALID,20.374,VALID,150.0,VALID,0.0,
2018-04-20, 00:11:06,VALID,916.795,VALID,0.0,VALID,98.998,VALID,0.014,VALID,20.361,VALID,160.0,VALID,0.0,
2018-04-20, 00:12:06,VALID,916.775,VALID,0.0,VALID,98.966,VALID,0.01,VALID,20.354,VALID,171.0,VALID,0.0,
2018-04-20, 00:13:06,VALID,916.763,VALID,0.0,VALID,98.988,VALID,0.016,VALID,20.376,VALID,182.0,VALID,0.0,
2018-04-20, 00:14:06,VALID,916.763,VALID,0.0,VALID,98.968,VALID,0.003,VALID,20.381,VALID,182.0,VALID,0.0,
2018-04-20, 00:15:06,VALID,916.758,VALID,0.0,VALID,98.999,VALID,0.007,VALID,20.364,VALID,182.0,VALID,0.0,
2018-04-20, 00:16:06,VALID,916.755,VALID,0.0,VALID,98.956,VALID,0.017,VALID,20.334,VALID,179.0,VALID,0.0,
2018-04-20, 00:17:06,VALID,916.757,VALID,0.0,VALID,98.964,VALID,-0.001,VALID,20.309,VALID,172.0,VALID,0.0,
2018-04-20, 00:18:06,VALID,916.76,VALID,0.0,VALID,98.917,VALID,0.004,VALID,20.235,VALID,128.0,VALID,0.0,
2018-04-20, 00:19:06,VALID,916.762,VALID,0.0,VALID,98.842,VALID,0.003,VALID,20.145,VALID,95.0,VALID,0.0,
2018-04-20, 00:20:06,VALID,916.787,VALID,0.0,VALID,98.823,VALID,-0.01,VALID,20.09,VALID,73.0,VALID,0.473,
2018-04-20, 00:21:06,VALID,916.788,VALID,0.0,VALID,98.888,VALID,0.013,VALID,20.106,VALID,66.0,VALID,0.795,
2018-04-20, 00:22:06,VALID,916.788,VALID,0.0,VALID,98.94,VALID,-0.002,VALID,20.147,VALID,67.0,VALID,1.191,
2018-04-20, 00:23:06,VALID,916.781,VALID,0.0,VALID,98.969,VALID,0.019,VALID,20.157,VALID,64.0,VALID,1.339,
2018-04-20, 00:24:06,VALID,916.783,VALID,0.0,VALID,98.985,VALID,0.017,VALID,20.175,VALID,68.0,VALID,1.252,
2018-04-20, 00:25:06,VALID,916.763,VALID,0.0,VALID,98.99,VALID,0.008,VALID,20.188,VALID,81.0,VALID,0.916,
2018-04-20, 00:26:06,VALID,916.759,VALID,0.0,VALID,99.008,VALID,0.01,VALID,20.202,VALID,89.0,VALID,1.023,
2018-04-20, 00:27:06,VALID,916.762,VALID,0.0,VALID,99.02,VALID,0.019,VALID,20.218,VALID,93.0,VALID,0.989,
2018-04-20, 00:28:06,VALID,916.764,VALID,0.0,VALID,99.027,VALID,0.02,VALID,20.232,VALID,93.0,VALID,0.873,
2018-04-20, 00:29:06,VALID,916.774,VALID,0.0,VALID,99.05,VALID,0.008,VALID,20.234,VALID,81.0,VALID,0.779,
2018-04-20, 00:30:06,VALID,916.787,VALID,0.0,VALID,99.034,VALID,0.008,VALID,20.219,VALID,65.0,VALID,0.874,
2018-04-20, 00:31:06,VALID,916.797,VALID,0.0,VALID,99.018,VALID,-0.015,VALID,20.209,VALID,61.0,VALID,0.88,
2018-04-20, 00:32:06,VALID,916.79,VALID,0.0,VALID,99.04,VALID,-0.012,VALID,20.206,VALID,58.0,VALID,0.649,
2018-04-20, 00:33:06,VALID,916.793,VALID,0.0,VALID,99.051,VALID,-0.016,VALID,20.206,VALID,55.0,VALID,0.127,
2018-04-20, 00:34:06,VALID,916.782,VALID,0.0,VALID,99.063,VALID,0.005,VALID,20.235,VALID,55.0,VALID,0.0,
2018-04-20, 00:35:06,VALID,916.747,VALID,0.0,VALID,99.083,VALID,0.008,VALID,20.269,VALID,55.0,VALID,0.0,
2018-04-20, 00:36:06,VALID,916.713,VALID,0.0,VALID,99.086,VALID,0.011,VALID,20.309,VALID,66.0,VALID,0.0,
2018-04-20, 00:37:06,VALID,916.679,VALID,0.0,VALID,99.096,VALID,-0.003,VALID,20.336,VALID,181.0,VALID,0.007,
2018-04-20, 00:38:06,VALID,916.661,VALID,0.0,VALID,99.086,VALID,-0.002,VALID,20.315,VALID,215.0,VALID,0.108,
2018-04-20, 00:39:06,VALID,916.648,VALID,0.0,VALID,99.107,VALID,-0.001,VALID,20.323,VALID,217.0,VALID,0.0,
2018-04-20, 00:40:06,VALID,916.623,VALID,0.0,VALID,99.095,VALID,0.008,VALID,20.311,VALID,217.0,VALID,0.0,
2018-04-20, 00:41:06,VALID,916.624,VALID,0.0,VALID,99.102,VALID,0.008,VALID,20.319,VALID,218.0,VALID,0.0,
2018-04-20, 00:42:06,VALID,916.625,VALID,0.0,VALID,99.118,VALID,-0.0,VALID,20.347,VALID,218.0,VALID,0.0,
2018-04-20, 00:43:06,VALID,916.616,VALID,0.0,VALID,99.1,VALID,-0.013,VALID,20.359,VALID,129.0,VALID,0.0,
2018-04-20, 00:44:06,VALID,916.601,VALID,0.0,VALID,99.08,VALID,-0.009,VALID,20.319,VALID,116.0,VALID,0.0,
2018-04-20, 00:45:06,VALID,916.594,VALID,0.0,VALID,99.065,VALID,-0.013,VALID,20.277,VALID,116.0,VALID,0.0,
2018-04-20, 00:46:06,VALID,916.58,VALID,0.0,VALID,99.073,VALID,0.005,VALID,20.243,VALID,116.0,VALID,0.0,
2018-04-20, 00:47:06,VALID,916.564,VALID,0.0,VALID,99.082,VALID,0.006,VALID,20.234,VALID,116.0,VALID,0.0,
2018-04-20, 00:48:06,VALID,916.546,VALID,0.0,VALID,99.081,VALID,-0.027,VALID,20.258,VALID,116.0,VALID,0.0,
2018-04-20, 00:49:06,VALID,916.53,VALID,0.0,VALID,99.078,VALID,0.009,VALID,20.249,VALID,116.0,VALID,0.0,
2018-04-20, 00:50:06,VALID,916.513,VALID,0.0,VALID,99.11,VALID,-0.008,VALID,20.249,VALID,108.0,VALID,0.0,
2018-04-20, 00:51:06,VALID,916.505,VALID,0.0,VALID,99.1,VALID,-0.014,VALID,20.237,VALID,101.0,VALID,0.0,
2018-04-20, 00:52:06,VALID,916.5,VALID,0.0,VALID,99.115,VALID,-0.017,VALID,20.231,VALID,78.0,VALID,0.254,
2018-04-20, 00:53:06,VALID,916.486,VALID,0.0,VALID,99.111,VALID,0.003,VALID,20.221,VALID,63.0,VALID,0.609,
2018-04-20, 00:54:06,VALID,916.462,VALID,0.0,VALID,99.12,VALID,-0.015,VALID,20.23,VALID,82.0,VALID,0.684,
2018-04-20, 00:55:06,VALID,916.465,VALID,0.0,VALID,99.128,VALID,-0.014,VALID,20.262,VALID,83.0,VALID,0.579,
2018-04-20, 00:56:06,VALID,916.45,VALID,0.0,VALID,99.144,VALID,-0.001,VALID,20.271,VALID,93.0,VALID,0.293,
2018-04-20, 00:57:06,VALID,916.452,VALID,0.0,VALID,99.128,VALID,-0.014,VALID,20.273,VALID,97.0,VALID,0.227,
2018-04-20, 00:58:06,VALID,916.448,VALID,0.0,VALID,99.124,VALID,-0.009,VALID,20.276,VALID,100.0,VALID,0.277,
2018-04-20, 00:59:06,VALID,916.445,VALID,0.0,VALID,99.13,VALID,-0.01,VALID,20.293,VALID,107.0,VALID,0.203,
2018-04-20, 01:00:06,VALID,916.447,VALID,0.0,VALID,99.128,VALID,-0.009,VALID,20.315,VALID,108.0,VALID,0.027,
2018-04-20, 01:01:06,VALID,916.453,VALID,0.0,VALID,99.14,VALID,-0.012,VALID,20.32,VALID,108.0,VALID,0.0,
2018-04-20, 01:02:06,VALID,916.456,VALID,0.0,VALID,99.15,VALID,-0.004,VALID,20.332,VALID,108.0,VALID,0.0,
2018-04-20, 01:03:06,VALID,916.451,VALID,0.0,VALID,99.143,VALID,-0.015,VALID,20.345,VALID,108.0,VALID,0.0,
2018-04-20, 01:04:06,VALID,916.443,VALID,0.0,VALID,99.139,VALID,-0.012,VALID,20.354,VALID,112.0,VALID,0.0,
2018-04-20, 01:05:06,VALID,916.438,VALID,0.0,VALID,99.146,VALID,-0.007,VALID,20.379,VALID,131.0,VALID,0.0,
2018-04-20, 01:06:06,VALID,916.403,VALID,0.0,VALID,99.14,VALID,-0.014,VALID,20.408,VALID,140.0,VALID,0.0,
2018-04-20, 01:07:06,VALID,916.375,VALID,0.0,VALID,99.156,VALID,-0.018,VALID,20.441,VALID,141.0,VALID,0.0,
2018-04-20, 01:08:06,VALID,916.344,VALID,0.0,VALID,99.156,VALID,-0.013,VALID,20.45,VALID,133.0,VALID,0.284,
2018-04-20, 01:09:06,VALID,916.322,VALID,0.0,VALID,99.152,VALID,-0.014,VALID,20.451,VALID,132.0,VALID,0.471,
2018-04-20, 01:10:06,VALID,916.303,VALID,0.0,VALID,99.129,VALID,-0.016,VALID,20.437,VALID,127.0,VALID,0.524,
2018-04-20, 01:11:06,VALID,916.291,VALID,0.0,VALID,99.128,VALID,-0.009,VALID,20.426,VALID,121.0,VALID,0.809,
2018-04-20, 01:12:06,VALID,916.279,VALID,0.0,VALID,99.128,VALID,-0.016,VALID,20.423,VALID,114.0,VALID,0.833,
2018-04-20, 01:13:06,VALID,916.257,VALID,0.0,VALID,99.149,VALID,-0.011,VALID,20.426,VALID,109.0,VALID,0.761,
2018-04-20, 01:14:06,VALID,916.241,VALID,0.0,VALID,99.122,VALID,-0.021,VALID,20.432,VALID,109.0,VALID,0.852,
2018-04-20, 01:15:06,VALID,916.23,VALID,0.0,VALID,99.153,VALID,-0.021,VALID,20.432,VALID,114.0,VALID,1.205,
2018-04-20, 01:16:06,VALID,916.211,VALID,0.0,VALID,99.131,VALID,-0.02,VALID,20.43,VALID,115.0,VALID,1.193,
2018-04-20, 01:17:06,VALID,916.2,VALID,0.0,VALID,99.13,VALID,-0.011,VALID,20.433,VALID,114.0,VALID,1.188,
2018-04-20, 01:18:06,VALID,916.203,VALID,0.0,VALID,99.143,VALID,-0.009,VALID,20.443,VALID,113.0,VALID,1.343,
2018-04-20, 01:19:06,VALID,916.203,VALID,0.0,VALID,99.153,VALID,-0.011,VALID,20.459,VALID,110.0,VALID,1.486,
2018-04-20, 01:20:06,VALID,916.204,VALID,0.0,VALID,99.157,VALID,-0.016,VALID,20.463,VALID,107.0,VALID,1.184,
2018-04-20, 01:21:06,VALID,916.217,VALID,0.0,VALID,99.152,VALID,-0.009,VALID,20.474,VALID,99.0,VALID,1.146,
2018-04-20, 01:22:06,VALID,916.223,VALID,0.0,VALID,99.168,VALID,-0.001,VALID,20.479,VALID,98.0,VALID,1.424,
2018-04-20, 01:23:06,VALID,916.229,VALID,0.0,VALID,99.165,VALID,-0.02,VALID,20.48,VALID,98.0,VALID,0.843,
2018-04-20, 01:24:06,VALID,916.232,VALID,0.0,VALID,99.149,VALID,-0.018,VALID,20.483,VALID,113.0,VALID,0.646,
2018-04-20, 01:25:06,VALID,916.239,VALID,0.0,VALID,99.157,VALID,0.015,VALID,20.488,VALID,125.0,VALID,0.709,
2018-04-20, 01:26:06,VALID,916.237,VALID,0.0,VALID,99.152,VALID,0.0,VALID,20.488,VALID,121.0,VALID,0.668,
2018-04-20, 01:27:06,VALID,916.248,VALID,0.0,VALID,99.158,VALID,-0.004,VALID,20.488,VALID,122.0,VALID,0.688,
2018-04-20, 01:28:06,VALID,916.244,VALID,0.0,VALID,99.164,VALID,-0.002,VALID,20.491,VALID,129.0,VALID,0.412,
2018-04-20, 01:29:06,VALID,916.243,VALID,0.0,VALID,99.164,VALID,-0.012,VALID,20.489,VALID,128.0,VALID,0.551,
2018-04-20, 01:30:06,VALID,916.24,VALID,0.0,VALID,99.158,VALID,-0.017,VALID,20.492,VALID,125.0,VALID,0.604,
2018-04-20, 01:31:06,VALID,916.233,VALID,0.0,VALID,99.163,VALID,-0.017,VALID,20.478,VALID,121.0,VALID,0.807,
2018-04-20, 01:32:06,VALID,916.236,VALID,0.0,VALID,99.145,VALID,-0.01,VALID,20.481,VALID,114.0,VALID,0.719,
2018-04-20, 01:33:06,VALID,916.227,VALID,0.0,VALID,99.152,VALID,0.008,VALID,20.475,VALID,111.0,VALID,0.683,
2018-04-20, 01:34:06,VALID,916.225,VALID,0.0,VALID,99.152,VALID,0.024,VALID,20.468,VALID,109.0,VALID,0.613,
2018-04-20, 01:35:06,VALID,916.22,VALID,0.0,VALID,99.153,VALID,0.027,VALID,20.47,VALID,110.0,VALID,0.612,
2018-04-20, 01:36:06,VALID,916.227,VALID,0.0,VALID,99.152,VALID,0.018,VALID,20.471,VALID,108.0,VALID,0.682,
2018-04-20, 01:37:06,VALID,916.238,VALID,0.0,VALID,99.168,VALID,0.007,VALID,20.469,VALID,106.0,VALID,0.723,
2018-04-20, 01:38:06,VALID,916.246,VALID,0.0,VALID,99.157,VALID,-0.001,VALID,20.473,VALID,103.0,VALID,0.724,
2018-04-20, 01:39:06,VALID,916.27,VALID,0.0,VALID,99.163,VALID,-0.003,VALID,20.477,VALID,89.0,VALID,0.812,
2018-04-20, 01:40:06,VALID,916.273,VALID,0.0,VALID,99.176,VALID,-0.005,VALID,20.478,VALID,90.0,VALID,0.813,
2018-04-20, 01:41:06,VALID,916.305,VALID,0.0,VALID,99.158,VALID,0.002,VALID,20.475,VALID,85.0,VALID,0.96,
2018-04-20, 01:42:06,VALID,916.327,VALID,0.0,VALID,99.179,VALID,-0.009,VALID,20.473,VALID,77.0,VALID,0.875,
2018-04-20, 01:43:06,VALID,916.342,VALID,0.0,VALID,99.153,VALID,0.005,VALID,20.469,VALID,75.0,VALID,0.845,
2018-04-20, 01:44:06,VALID,916.355,VALID,0.0,VALID,99.151,VALID,0.006,VALID,20.477,VALID,63.0,VALID,0.531,
2018-04-20, 01:45:06,VALID,916.385,VALID,0.0,VALID,99.142,VALID,-0.003,VALID,20.478,VALID,67.0,VALID,0.661,
2018-04-20, 01:46:06,VALID,916.391,VALID,0.0,VALID,99.147,VALID,-0.01,VALID,20.471,VALID,58.0,VALID,0.497,
2018-04-20, 01:47:06,VALID,916.393,VALID,0.0,VALID,99.152,VALID,0.0,VALID,20.465,VALID,73.0,VALID,0.771,
2018-04-20, 01:48:06,VALID,916.395,VALID,0.0,VALID,99.135,VALID,0.017,VALID,20.457,VALID,72.0,VALID,0.512,
2018-04-20, 01:49:06,VALID,916.386,VALID,0.0,VALID,99.14,VALID,0.011,VALID,20.462,VALID,64.0,VALID,0.414,
2018-04-20, 01:50:06,VALID,916.381,VALID,0.0,VALID,99.125,VALID,0.007,VALID,20.454,VALID,59.0,VALID,0.122,
2018-04-20, 01:51:06,VALID,916.376,VALID,0.0,VALID,99.12,VALID,0.005,VALID,20.46,VALID,58.0,VALID,0.014,
2018-04-20, 01:52:06,VALID,916.363,VALID,0.0,VALID,99.125,VALID,0.009,VALID,20.471,VALID,58.0,VALID,0.0,
2018-04-20, 01:53:06,VALID,916.347,VALID,0.0,VALID,99.119,VALID,-0.015,VALID,20.471,VALID,60.0,VALID,0.0,
2018-04-20, 01:54:06,VALID,916.343,VALID,0.0,VALID,99.11,VALID,-0.018,VALID,20.46,VALID,86.0,VALID,0.0,
2018-04-20, 01:55:06,VALID,916.341,VALID,0.0,VALID,99.131,VALID,0.003,VALID,20.451,VALID,106.0,VALID,0.0,
2018-04-20, 01:56:06,VALID,916.333,VALID,0.0,VALID,99.117,VALID,-0.001,VALID,20.447,VALID,125.0,VALID,0.433,
2018-04-20, 01:57:06,VALID,916.313,VALID,0.0,VALID,99.121,VALID,-0.017,VALID,20.466,VALID,128.0,VALID,0.411,
2018-04-20, 01:58:06,VALID,916.302,VALID,0.0,VALID,99.102,VALID,-0.001,VALID,20.479,VALID,134.0,VALID,0.504,
2018-04-20, 01:59:06,VALID,916.298,VALID,0.0,VALID,99.103,VALID,-0.005,VALID,20.482,VALID,123.0,VALID,0.707,
2018-04-20, 02:00:06,VALID,916.288,VALID,0.0,VALID,99.104,VALID,0.007,VALID,20.466,VALID,117.0,VALID,0.643,
2018-04-20, 02:01:06,VALID,916.279,VALID,0.0,VALID,99.092,VALID,0.014,VALID,20.461,VALID,106.0,VALID,0.465,
2018-04-20, 02:02:06,VALID,916.28,VALID,0.0,VALID,99.115,VALID,0.01,VALID,20.47,VALID,93.0,VALID,0.21,
2018-04-20, 02:03:06,VALID,916.264,VALID,0.0,VALID,99.121,VALID,0.023,VALID,20.5,VALID,72.0,VALID,0.226,
2018-04-20, 02:04:06,VALID,916.245,VALID,0.0,VALID,99.093,VALID,0.009,VALID,20.498,VALID,72.0,VALID,0.135,
2018-04-20, 02:05:06,VALID,916.209,VALID,0.0,VALID,99.096,VALID,0.037,VALID,20.478,VALID,72.0,VALID,0.153,
2018-04-20, 02:06:06,VALID,916.194,VALID,0.0,VALID,99.086,VALID,0.012,VALID,20.463,VALID,72.0,VALID,0.034,
2018-04-20, 02:07:06,VALID,916.162,VALID,0.0,VALID,99.083,VALID,0.016,VALID,20.462,VALID,72.0,VALID,0.0,
2018-04-20, 02:08:06,VALID,916.132,VALID,0.0,VALID,99.08,VALID,0.017,VALID,20.45,VALID,72.0,VALID,0.0,
2018-04-20, 02:09:06,VALID,916.125,VALID,0.0,VALID,99.081,VALID,0.022,VALID,20.445,VALID,72.0,VALID,0.0,
2018-04-20, 02:10:06,VALID,916.112,VALID,0.0,VALID,99.089,VALID,0.038,VALID,20.452,VALID,72.0,VALID,0.0,
2018-04-20, 02:11:06,VALID,916.122,VALID,0.0,VALID,99.105,VALID,0.025,VALID,20.46,VALID,72.0,VALID,0.0,
2018-04-20, 02:12:06,VALID,916.124,VALID,0.0,VALID,99.103,VALID,0.014,VALID,20.456,VALID,72.0,VALID,0.0,
2018-04-20, 02:13:06,VALID,916.135,VALID,0.0,VALID,99.081,VALID,0.022,VALID,20.446,VALID,72.0,VALID,0.0,
2018-04-20, 02:14:06,VALID,916.141,VALID,0.0,VALID,99.097,VALID,0.031,VALID,20.442,VALID,72.0,VALID,0.0,
2018-04-20, 02:15:06,VALID,916.147,VALID,0.0,VALID,99.091,VALID,0.02,VALID,20.437,VALID,72.0,VALID,0.0,
2018-04-20, 02:16:06,VALID,916.151,VALID,0.0,VALID,99.098,VALID,0.022,VALID,20.444,VALID,72.0,VALID,0.0,
2018-04-20, 02:17:06,VALID,916.135,VALID,0.0,VALID,99.078,VALID,-0.004,VALID,20.421,VALID,72.0,VALID,0.0,
2018-04-20, 02:18:06,VALID,916.137,VALID,0.0,VALID,99.082,VALID,-0.025,VALID,20.418,VALID,59.0,VALID,0.0,
2018-04-20, 02:19:06,VALID,916.141,VALID,0.0,VALID,99.08,VALID,-0.026,VALID,20.41,VALID,42.0,VALID,0.0,
2018-04-20, 02:20:06,VALID,916.113,VALID,0.0,VALID,99.086,VALID,-0.025,VALID,20.401,VALID,33.0,VALID,0.0,
2018-04-20, 02:21:06,VALID,916.108,VALID,0.0,VALID,99.072,VALID,-0.014,VALID,20.377,VALID,38.0,VALID,0.0,
2018-04-20, 02:22:06,VALID,916.083,VALID,0.0,VALID,99.07,VALID,-0.015,VALID,20.368,VALID,56.0,VALID,0.0,
2018-04-20, 02:23:06,VALID,916.059,VALID,0.0,VALID,99.096,VALID,-0.011,VALID,20.368,VALID,69.0,VALID,0.0,
2018-04-20, 02:24:06,VALID,916.047,VALID,0.0,VALID,99.076,VALID,-0.005,VALID,20.358,VALID,83.0,VALID,0.0,
2018-04-20, 02:25:06,VALID,916.033,VALID,0.0,VALID,99.079,VALID,-0.012,VALID,20.352,VALID,92.0,VALID,0.0,
2018-04-20, 02:26:06,VALID,916.014,VALID,0.0,VALID,99.07,VALID,-0.012,VALID,20.356,VALID,99.0,VALID,0.0,
2018-04-20, 02:27:06,VALID,916.003,VALID,0.0,VALID,99.092,VALID,-0.027,VALID,20.355,VALID,110.0,VALID,0.0,
2018-04-20, 02:28:06,VALID,916.002,VALID,0.0,VALID,99.083,VALID,-0.021,VALID,20.338,VALID,111.0,VALID,0.0,
2018-04-20, 02:29:06,VALID,915.995,VALID,0.0,VALID,99.079,VALID,-0.014,VALID,20.343,VALID,111.0,VALID,0.0,
2018-04-20, 02:30:06,VALID,915.98,VALID,0.0,VALID,99.092,VALID,-0.018,VALID,20.354,VALID,112.0,VALID,0.0,
2018-04-20, 02:31:06,VALID,915.973,VALID,0.0,VALID,99.125,VALID,-0.027,VALID,20.367,VALID,113.0,VALID,0.0,
2018-04-20, 02:32:06,VALID,915.96,VALID,0.0,VALID,99.107,VALID,-0.017,VALID,20.366,VALID,113.0,VALID,0.0,
2018-04-20, 02:33:06,VALID,915.934,VALID,0.0,VALID,99.123,VALID,0.001,VALID,20.363,VALID,113.0,VALID,0.0,
2018-04-20, 02:34:06,VALID,915.942,VALID,0.0,VALID,99.126,VALID,-0.012,VALID,20.372,VALID,113.0,VALID,0.0,
2018-04-20, 02:35:06,VALID,915.919,VALID,0.0,VALID,99.123,VALID,-0.004,VALID,20.359,VALID,113.0,VALID,0.0,
2018-04-20, 02:36:06,VALID,915.918,VALID,0.0,VALID,99.104,VALID,-0.002,VALID,20.35,VALID,113.0,VALID,0.0,
2018-04-20, 02:37:06,VALID,915.919,VALID,0.0,VALID,99.107,VALID,0.02,VALID,20.344,VALID,113.0,VALID,0.0,
2018-04-20, 02:38:06,VALID,915.93,VALID,0.0,VALID,99.114,VALID,-0.006,VALID,20.343,VALID,113.0,VALID,0.0,
2018-04-20, 02:39:06,VALID,915.93,VALID,0.0,VALID,99.112,VALID,0.005,VALID,20.351,VALID,113.0,VALID,0.0,
2018-04-20, 02:40:06,VALID,915.937,VALID,0.0,VALID,99.121,VALID,0.0,VALID,20.354,VALID,112.0,VALID,0.0,
2018-04-20, 02:41:06,VALID,915.936,VALID,0.0,VALID,99.133,VALID,0.002,VALID,20.355,VALID,112.0,VALID,0.0,
2018-04-20, 02:42:06,VALID,915.933,VALID,0.0,VALID,99.113,VALID,0.0,VALID,20.337,VALID,112.0,VALID,0.0,
2018-04-20, 02:43:06,VALID,915.924,VALID,0.0,VALID,99.109,VALID,0.004,VALID,20.335,VALID,113.0,VALID,0.0,
2018-04-20, 02:44:06,VALID,915.917,VALID,0.0,VALID,99.101,VALID,0.014,VALID,20.354,VALID,113.0,VALID,0.0,
2018-04-20, 02:45:06,VALID,915.909,VALID,0.0,VALID,99.118,VALID,-0.007,VALID,20.364,VALID,113.0,VALID,0.0,
2018-04-20, 02:46:06,VALID,915.899,VALID,0.0,VALID,99.123,VALID,0.002,VALID,20.376,VALID,113.0,VALID,0.0,
2018-04-20, 02:47:06,VALID,915.887,VALID,0.0,VALID,99.136,VALID,0.002,VALID,20.377,VALID,110.0,VALID,0.0,
2018-04-20, 02:48:06,VALID,915.89,VALID,0.0,VALID,99.116,VALID,0.034,VALID,20.39,VALID,94.0,VALID,0.0,
2018-04-20, 02:49:06,VALID,915.881,VALID,0.0,VALID,99.128,VALID,0.019,VALID,20.394,VALID,87.0,VALID,0.0,
2018-04-20, 02:50:06,VALID,915.868,VALID,0.0,VALID,99.126,VALID,0.03,VALID,20.396,VALID,85.0,VALID,0.0,
2018-04-20, 02:51:06,VALID,915.875,VALID,0.0,VALID,99.106,VALID,0.03,VALID,20.39,VALID,85.0,VALID,0.0,
2018-04-20, 02:52:06,VALID,915.867,VALID,0.0,VALID,99.091,VALID,0.024,VALID,20.383,VALID,85.0,VALID,0.0,
2018-04-20, 02:53:06,VALID,915.864,VALID,0.0,VALID,99.103,VALID,0.032,VALID,20.388,VALID,85.0,VALID,0.0,
2018-04-20, 02:54:06,VALID,915.86,VALID,0.0,VALID,99.095,VALID,0.043,VALID,20.395,VALID,85.0,VALID,0.0,
2018-04-20, 02:55:06,VALID,915.863,VALID,0.0,VALID,99.105,VALID,0.041,VALID,20.398,VALID,85.0,VALID,0.0,
2018-04-20, 02:56:06,VALID,915.865,VALID,0.0,VALID,99.102,VALID,0.031,VALID,20.402,VALID,85.0,VALID,0.0,
2018-04-20, 02:57:06,VALID,915.856,VALID,0.0,VALID,99.076,VALID,0.016,VALID,20.388,VALID,85.0,VALID,0.0,
2018-04-20, 02:58:06,VALID,915.854,VALID,0.0,VALID,99.095,VALID,0.015,VALID,20.391,VALID,97.0,VALID,0.0,
2018-04-20, 02:59:06,VALID,915.845,VALID,0.0,VALID,99.115,VALID,0.043,VALID,20.42,VALID,104.0,VALID,0.0,
2018-04-20, 03:00:06,VALID,915.838,VALID,0.0,VALID,99.112,VALID,0.043,VALID,20.442,VALID,108.0,VALID,0.0,
2018-04-20, 03:01:06,VALID,915.818,VALID,0.0,VALID,99.089,VALID,0.018,VALID,20.454,VALID,106.0,VALID,0.0,
2018-04-20, 03:02:06,VALID,915.817,VALID,0.0,VALID,99.089,VALID,0.011,VALID,20.464,VALID,105.0,VALID,0.685,
2018-04-20, 03:03:06,VALID,915.804,VALID,0.0,VALID,99.094,VALID,0.0,VALID,20.463,VALID,107.0,VALID,0.569,
2018-04-20, 03:04:06,VALID,915.781,VALID,0.0,VALID,99.068,VALID,-0.008,VALID,20.465,VALID,110.0,VALID,0.713,
2018-04-20, 03:05:06,VALID,915.77,VALID,0.0,VALID,99.065,VALID,-0.004,VALID,20.46,VALID,116.0,VALID,0.718,
2018-04-20, 03:06:06,VALID,915.754,VALID,0.0,VALID,99.037,VALID,-0.004,VALID,20.461,VALID,127.0,VALID,0.472,
2018-04-20, 03:07:06,VALID,915.746,VALID,0.0,VALID,99.05,VALID,-0.011,VALID,20.486,VALID,139.0,VALID,0.316,
2018-04-20, 03:08:06,VALID,915.734,VALID,0.0,VALID,99.044,VALID,-0.009,VALID,20.496,VALID,139.0,VALID,0.568,
2018-04-20, 03:09:06,VALID,915.724,VALID,0.0,VALID,99.063,VALID,0.0,VALID,20.513,VALID,146.0,VALID,0.349,
2018-04-20, 03:10:06,VALID,915.714,VALID,0.0,VALID,99.039,VALID,-0.019,VALID,20.514,VALID,136.0,VALID,0.534,
2018-04-20, 03:11:06,VALID,915.703,VALID,0.0,VALID,99.032,VALID,-0.008,VALID,20.506,VALID,126.0,VALID,0.512,
2018-04-20, 03:12:06,VALID,915.712,VALID,0.0,VALID,99.033,VALID,-0.001,VALID,20.477,VALID,121.0,VALID,0.567,
2018-04-20, 03:13:06,VALID,915.708,VALID,0.0,VALID,99.031,VALID,-0.003,VALID,20.471,VALID,125.0,VALID,0.437,
2018-04-20, 03:14:06,VALID,915.697,VALID,0.0,VALID,99.037,VALID,0.002,VALID,20.473,VALID,130.0,VALID,0.35,
2018-04-20, 03:15:06,VALID,915.7,VALID,0.0,VALID,99.054,VALID,0.006,VALID,20.496,VALID,136.0,VALID,0.011,
2018-04-20, 03:16:06,VALID,915.703,VALID,0.0,VALID,99.078,VALID,0.001,VALID,20.528,VALID,147.0,VALID,0.0,
2018-04-20, 03:17:06,VALID,915.705,VALID,0.0,VALID,99.078,VALID,-0.005,VALID,20.546,VALID,159.0,VALID,0.0,
2018-04-20, 03:18:06,VALID,915.719,VALID,0.0,VALID,99.07,VALID,-0.005,VALID,20.555,VALID,159.0,VALID,0.0,
2018-04-20, 03:19:06,VALID,915.712,VALID,0.0,VALID,99.08,VALID,-0.001,VALID,20.567,VALID,159.0,VALID,0.0,
2018-04-20, 03:20:06,VALID,915.719,VALID,0.0,VALID,99.079,VALID,-0.001,VALID,20.553,VALID,150.0,VALID,0.0,
2018-04-20, 03:21:06,VALID,915.709,VALID,0.0,VALID,99.07,VALID,0.013,VALID,20.534,VALID,131.0,VALID,0.0,
2018-04-20, 03:22:06,VALID,915.707,VALID,0.0,VALID,99.068,VALID,0.005,VALID,20.536,VALID,130.0,VALID,0.0,
2018-04-20, 03:23:06,VALID,915.713,VALID,0.0,VALID,99.061,VALID,0.0,VALID,20.529,VALID,120.0,VALID,0.509,
2018-04-20, 03:24:06,VALID,915.707,VALID,0.0,VALID,99.061,VALID,-0.0,VALID,20.509,VALID,125.0,VALID,1.005,
2018-04-20, 03:25:06,VALID,915.704,VALID,0.0,VALID,99.059,VALID,0.016,VALID,20.503,VALID,123.0,VALID,1.463,
2018-04-20, 03:26:06,VALID,915.701,VALID,0.0,VALID,99.05,VALID,0.007,VALID,20.515,VALID,127.0,VALID,1.402,
2018-04-20, 03:27:06,VALID,915.7,VALID,0.0,VALID,99.054,VALID,-0.003,VALID,20.535,VALID,134.0,VALID,1.312,
2018-04-20, 03:28:06,VALID,915.706,VALID,0.0,VALID,99.046,VALID,0.01,VALID,20.547,VALID,142.0,VALID,0.781,
2018-04-20, 03:29:06,VALID,915.719,VALID,0.0,VALID,99.052,VALID,0.019,VALID,20.566,VALID,133.0,VALID,0.88,
2018-04-20, 03:30:06,VALID,915.722,VALID,0.0,VALID,99.022,VALID,-0.004,VALID,20.554,VALID,129.0,VALID,0.818,
2018-04-20, 03:31:06,VALID,915.722,VALID,0.0,VALID,99.014,VALID,-0.004,VALID,20.542,VALID,134.0,VALID,1.255,
2018-04-20, 03:32:06,VALID,915.733,VALID,0.0,VALID,99.0,VALID,-0.006,VALID,20.535,VALID,126.0,VALID,1.28,
2018-04-20, 03:33:06,VALID,915.73,VALID,0.0,VALID,99.006,VALID,-0.002,VALID,20.524,VALID,136.0,VALID,0.989,
2018-04-20, 03:34:06,VALID,915.748,VALID,0.0,VALID,99.018,VALID,0.001,VALID,20.535,VALID,141.0,VALID,0.704,
2018-04-20, 03:35:06,VALID,915.735,VALID,0.0,VALID,99.029,VALID,-0.015,VALID,20.53,VALID,140.0,VALID,0.618,
2018-04-20, 03:36:06,VALID,915.752,VALID,0.0,VALID,99.018,VALID,0.002,VALID,20.524,VALID,134.0,VALID,0.896,
2018-04-20, 03:37:06,VALID,915.758,VALID,0.0,VALID,99.01,VALID,0.003,VALID,20.532,VALID,147.0,VALID,0.492,
2018-04-20, 03:38:06,VALID,915.768,VALID,0.0,VALID,99.022,VALID,-0.007,VALID,20.526,VALID,131.0,VALID,0.789,
2018-04-20, 03:39:06,VALID,915.766,VALID,0.0,VALID,99.023,VALID,0.008,VALID,20.529,VALID,124.0,VALID,0.182,
2018-04-20, 03:40:06,VALID,915.773,VALID,0.0,VALID,99.023,VALID,-0.007,VALID,20.528,VALID,127.0,VALID,0.507,